QPF
0.02 0.02 0.03 0.04 0.04 0.05 0.04 0.04 0.04 0.05 0.05 0.05 0.06 0.06 0.07 0.06 0.06 0.05 0.05 0.07 0.06 0.05 0.03 0.03 0.03 0.04 0.05 0.05 0.07 0.08 0.10 0.12 0.10 0.10 0.09 0.07 0.06 0.05 0.05 0.06 0.05 0.05 0.04
0.01 0.02 0.03 0.04 0.07 0.10 0.09 0.06 0.06 0.05 0.04 0.04 0.05 0.06 0.07 0.08 0.08 0.08 0.06 0.06 0.05 0.04 0.04 0.03 0.03 0.03 0.04 0.03 0.04 0.04 0.05 0.08 0.09 0.09 0.09 0.10 0.11 0.10 0.10 0.09 0.07 0.06 0.05
0.01 0.02 0.03 0.04 0.05 0.07 0.08 0.06 0.07 0.06 0.05 0.04 0.04 0.06 0.05 0.05 0.04 0.04 0.05 0.06 0.06 0.06 0.06 0.05 0.04 0.04 0.03 0.03 0.03 0.03 0.03 0.04 0.07 0.08 0.08 0.10 0.11 0.11 0.11 0.11 0.11 0.09 0.07
0.02 0.02 0.02 0.04 0.05 0.04 0.06 0.06 0.07 0.07 0.08 0.09 0.08 0.07 0.05 0.03 0.02 0.02 0.03 0.03 0.03 0.03 0.04 0.05 0.05 0.04 0.04 0.04 0.04 0.04 0.05 0.07 0.09 0.09 0.10 0.12 0.13 0.13 0.13 0.11 0.10 0.09 0.09
0.01 0.02 0.03 0.03 0.04 0.06 0.07 0.07 0.08 0.07 0.06 0.08 0.08 0.09 0.08 0.04 0.02 0.02 0.03 0.03 0.02 0.02 0.02 0.02 0.03 0.03 0.03 0.04 0.03 0.05 0.07 0.08 0.08 0.07 0.07 0.08 0.08 0.10 0.12 0.13 0.13 0.13 0.11
0.03 0.03 0.04 0.04 0.05 0.07 0.09 0.08 0.07 0.06 0.06 0.06 0.04 0.03 0.04 0.05 0.05 0.03 0.03 0.04 0.04 0.03 0.03 0.03 0.03 0.02 0.02 0.02 0.02 0.03 0.05 0.06 0.06 0.06 0.06 0.07 0.08 0.09 0.10 0.10 0.10 0.11 0.10
0.05 0.04 0.04 0.04 0.04 0.05 0.06 0.08 0.08 0.06 0.05 0.05 0.05 0.04 0.04 0.04 0.05 0.04 0.04 0.04 0.05 0.05 0.05 0.05 0.04 0.03 0.03 0.02 0.03 0.03 0.03 0.04 0.04 0.05 0.06 0.07 0.09 0.10 0.11 0.10 0.09 0.07 0.07
0.04 0.04 0.04 0.04 0.04 0.05 0.06 0.07 0.08 0.07 0.06 0.05 0.05 0.05 0.04 0.04 0.04 0.04 0.04 0.04 0.04 0.05 0.05 0.05 0.05 0.05 0.04 0.04 0.04 0.04 0.03 0.03 0.04 0.04 0.05 0.05 0.06 0.06 0.06 0.07 0.07 0.07 0.06
0.05 0.05 0.05 0.04 0.04 0.05 0.07 0.08 0.07 0.06 0.05 0.05 0.05 0.04 0.04 0.05 0.04 0.03 0.03 0.02 0.03 0.03 0.03 0.04 0.04 0.04 0.03 0.03 0.03 0.04 0.03 0.04 0.04 0.03 0.03 0.02 0.02 0.02 0.03 0.03 0.04 0.05 0.04
0.04 0.04 0.04 0.04 0.04 0.03 0.04 0.06 0.06 0.06 0.06 0.05 0.04 0.04 0.04 0.04 0.03 0.03 0.03 0.02 0.04 0.03 0.03 0.03 0.02 0.02 0.02 0.02 0.02 0.03 0.03 0.03 0.03 0.03 0.02 0.02 0.02 0.03 0.02 0.02 0.03 0.03 0.03
0.04 0.03 0.03 0.03 0.03 0.03 0.03 0.05 0.06 0.06 0.06 0.05 0.05 0.04 0.04 0.03 0.02 0.03 0.03 0.03 0.03 0.03 0.02 0.02 0.02 0.01 0.01 0.01 0.01 0.02 0.01 0.02 0.02 0.03 0.03 0.02 0.03 0.03 0.04 0.03 0.04 0.04 0.04
0.04 0.04 0.04 0.03 0.02 0.03 0.03 0.04 0.04 0.04 0.04 0.04 0.04 0.04 0.03 0.03 0.02 0.01 0.01 0.01 0.01 0.02 0.02 0.01 0.01 0.01 0.01 0.00 0.00 0.00 0.01 0.01 0.02 0.03 0.03 0.03 0.02 0.02 0.03 0.04 0.04 0.04 0.04
0.05 0.04 0.04 0.03 0.03 0.03 0.03 0.04 0.04 0.03 0.03 0.02 0.02 0.02 0.02 0.03 0.02 0.01 0.01 0.02 0.02 0.02 0.01 0.01 0.01 0.01 0.01 0.00 0.00 0.01 0.01 0.01 0.02 0.03 0.03 0.03 0.03 0.03 0.03 0.03 0.04 0.05 0.05
0.05 0.05 0.04 0.03 0.02 0.02 0.02 0.02 0.01 0.01 0.01 0.01 0.01 0.01 0.01 0.02 0.02 0.02 0.02 0.03 0.03 0.02 0.01 0.01 0.01 0.01 0.01 0.01 0.01 0.02 0.02 0.02 0.02 0.03 0.04 0.03 0.04 0.04 0.03 0.02 0.02 0.03 0.04
0.04 0.05 0.04 0.04 0.04 0.04 0.03 0.02 0.02 0.02 0.02 0.02 0.02 0.02 0.01 0.02 0.02 0.02 0.02 0.02 0.02 0.02 0.03 0.03 0.02 0.02 0.02 0.02 0.03 0.03 0.03 0.02 0.02 0.02 0.02 0.03 0.03 0.03 0.03 0.02 0.03 0.03 0.03
0.03 0.04 0.04 0.04 0.04 0.04 0.03 0.02 0.02 0.03 0.03 0.03 0.02 0.03 0.03 0.03 0.03 0.02 0.02 0.03 0.03 0.03 0.04 0.03 0.03 0.03 0.03 0.04 0.03 0.03 0.02 0.02 0.02 0.02 0.02 0.02 0.02 0.03 0.03 0.03 0.03 0.04 0.04
0.04 0.04 0.04 0.03 0.03 0.03 0.04 0.04 0.03 0.03 0.03 0.03 0.04 0.04 0.04 0.03 0.03 0.03 0.03 0.03 0.03 0.02 0.01 0.01 0.02 0.03 0.03 0.03 0.03 0.03 0.03 0.02 0.02 0.02 0.02 0.02 0.02 0.02 0.03 0.04 0.04 0.04 0.04
0.04 0.04 0.03 0.02 0.02 0.02 0.03 0.03 0.03 0.03 0.03 0.03 0.04 0.04 0.04 0.03 0.02 0.02 0.02 0.01 0.01 0.01 0.01 0.01 0.01 0.02 0.03 0.03 0.03 0.03 0.03 0.03 0.02 0.02 0.02 0.03 0.03 0.03 0.03 0.04 0.04 0.05 0.06
0.04 0.08 0.05 0.02 0.03 0.03 0.03 0.04 0.03 0.03 0.03 0.02 0.03 0.02 0.01 0.01 0.01 0.00 0.00 0.00 0.01 0.01 0.01 0.01 0.01 0.01 0.01 0.02 0.02 0.03 0.04 0.04 0.04 0.04 0.03 0.04 0.04 0.04 0.05 0.05 0.06 0.06 0.06
0.05 0.07 0.11 0.08 0.05 0.04 0.04 0.04 0.04 0.03 0.02 0.02 0.02 0.02 0.01 0.01 0.01 0.01 0.01 0.01 0.01 0.00 0.00 0.01 0.01 0.01 0.01 0.01 0.02 0.03 0.03 0.04 0.04 0.04 0.04 0.04 0.05 0.06 0.07 0.08 0.09 0.09 0.08
0.05 0.04 0.05 0.10 0.11 0.09 0.07 0.05 0.05 0.05 0.03 0.02 0.02 0.01 0.01 0.02 0.02 0.02 0.02 0.01 0.01 0.01 0.01 0.01 0.01 0.01 0.01 0.01 0.02 0.03 0.03 0.04 0.04 0.04 0.05 0.05 0.05 0.06 0.07 0.08 0.08 0.08 0.08
0.05 0.05 0.04 0.04 0.06 0.07 0.08 0.08 0.08 0.07 0.04 0.03 0.02 0.02 0.02 0.03 0.03 0.03 0.03 0.03 0.02 0.02 0.02 0.02 0.01 0.01 0.01 0.01 0.02 0.03 0.04 0.05 0.06 0.06 0.07 0.07 0.06 0.06 0.05 0.04 0.04 0.05 0.05
0.04 0.04 0.04 0.04 0.04 0.05 0.05 0.05 0.05 0.06 0.06 0.06 0.05 0.04 0.03 0.04 0.04 0.04 0.05 0.04 0.03 0.03 0.04 0.04 0.03 0.02 0.03 0.04 0.04 0.05 0.05 0.05 0.05 0.06 0.07 0.07 0.06 0.05 0.05 0.04 0.03 0.03 0.03
0.04 0.04 0.04 0.04 0.04 0.05 0.05 0.05 0.05 0.05 0.05 0.06 0.07 0.07 0.05 0.05 0.06 0.06 0.07 0.06 0.05 0.04 0.05 0.06 0.05 0.04 0.04 0.05 0.06 0.06 0.05 0.04 0.04 0.05 0.06 0.06 0.06 0.05 0.05 0.04 0.04 0.04 0.04
0.06 0.06 0.06 0.06 0.06 0.07 0.07 0.07 0.06 0.06 0.06 0.06 0.06 0.07 0.07 0.08 0.09 0.09 0.08 0.06 0.04 0.04 0.04 0.06 0.05 0.04 0.04 0.03 0.03 0.04 0.04 0.03 0.03 0.04 0.04 0.03 0.03 0.04 0.04 0.04 0.04 0.04 0.04
0.04 0.05 0.06 0.07 0.08 0.09 0.11 0.11 0.10 0.09 0.08 0.07 0.06 0.06 0.06 0.06 0.07 0.07 0.06 0.04 0.04 0.04 0.04 0.04 0.04 0.03 0.02 0.02 0.02 0.02 0.02 0.03 0.03 0.03 0.03 0.03 0.03 0.03 0.03 0.04 0.04 0.04 0.04
MSLP
1003.28 1003.46 1003.66 1003.86 1004.01 1004.11 1004.18 1004.25 1004.33 1004.46 1004.67 1004.96 1005.31 1005.72 1006.16 1006.61 1007.06 1007.51 1007.94 1008.39 1008.84 1009.30 1009.78 1010.27 1010.74 1011.18 1011.57 1011.91 1012.18 1012.40 1012.57 1012.70 1012.82 1012.93 1013.05 1013.17 1013.31 1013.47 1013.64 1013.81 1014.00 1014.19 1014.39
1003.03 1002.99 1003.00 1003.04 1003.09 1003.15 1003.23 1003.35 1003.52 1003.76 1004.05 1004.41 1004.81 1005.23 1005.65 1006.06 1006.46 1006.86 1007.25 1007.67 1008.11 1008.58 1009.07 1009.58 1010.08 1010.56 1010.99 1011.37 1011.69 1011.94 1012.15 1012.33 1012.49 1012.63 1012.78 1012.92 1013.07 1013.21 1013.35 1013.48 1013.60 1013.72 1013.84
1002.77 1002.52 1002.33 1002.20 1002.13 1002.13 1002.22 1002.40 1002.67 1003.02 1003.43 1003.88 1004.35 1004.80 1005.23 1005.62 1005.98 1006.32 1006.67 1007.05 1007.47 1007.94 1008.45 1008.98 1009.51 1010.02 1010.49 1010.90 1011.24 1011.52 1011.75 1011.95 1012.13 1012.30 1012.46 1012.62 1012.77 1012.91 1013.02 1013.12 1013.20 1013.26 1013.32
1002.49 1002.04 1001.65 1001.34 1001.15 1001.10 1001.19 1001.43 1001.79 1002.27 1002.81 1003.38 1003.93 1004.44 1004.89 1005.27 1005.60 1005.91 1006.23 1006.58 1006.98 1007.44 1007.96 1008.51 1009.07 1009.60 1010.09 1010.51 1010.86 1011.14 1011.37 1011.56 1011.74 1011.91 1012.08 1012.24 1012.40 1012.55 1012.66 1012.75 1012.81 1012.84 1012.86
1002.20 1001.56 1000.99 1000.53 1000.23 1000.12 1000.21 1000.50 1000.96 1001.55 1002.22 1002.91 1003.56 1004.14 1004.62 1005.02 1005.34 1005.63 1005.93 1006.26 1006.65 1007.12 1007.65 1008.21 1008.78 1009.33 1009.81 1010.23 1010.56 1010.82 1011.02 1011.18 1011.34 1011.49 1011.65 1011.82 1011.99 1012.15 1012.28 1012.39 1012.45 1012.47 1012.46
1001.95 1001.16 1000.45 999.86 999.46 999.30 999.39 999.72 1000.25 1000.95 1001.72 1002.52 1003.26 1003.91 1004.44 1004.86 1005.20 1005.49 1005.78 1006.11 1006.51 1006.98 1007.52 1008.10 1008.67 1009.21 1009.69 1010.08 1010.37 1010.58 1010.73 1010.85 1010.95 1011.07 1011.21 1011.38 1011.56 1011.75 1011.91 1012.05 1012.13 1012.17 1012.15
1001.80 1000.92 1000.11 999.44 998.98 998.77 998.85 999.21 999.79 1000.56 1001.41 1002.29 1003.10 1003.81 1004.38 1004.83 1005.19 1005.49 1005.80 1006.14 1006.55 1007.03 1007.58 1008.16 1008.74 1009.27 1009.72 1010.06 1010.30 1010.46 1010.54 1010.59 1010.64 1010.72 1010.84 1011.00 1011.19 1011.40 1011.60 1011.77 1011.89 1011.94 1011.94
1001.87 1000.96 1000.10 999.39 998.89 998.67 998.74 999.11 999.72 1000.51 1001.41 1002.32 1003.17 1003.90 1004.51 1004.98 1005.36 1005.67 1005.99 1006.35 1006.77 1007.27 1007.82 1008.41 1008.97 1009.48 1009.89 1010.19 1010.37 1010.46 1010.48 1010.47 1010.46 1010.50 1010.58 1010.73 1010.93 1011.16 1011.38 1011.59 1011.74 1011.82 1011.82
1002.21 1001.33 1000.49 999.79 999.30 999.08 999.15 999.51 1000.12 1000.91 1001.80 1002.70 1003.54 1004.28 1004.88 1005.35 1005.73 1006.05 1006.38 1006.74 1007.17 1007.67 1008.22 1008.79 1009.33 1009.81 1010.19 1010.44 1010.57 1010.60 1010.57 1010.50 1010.45 1010.44 1010.50 1010.63 1010.83 1011.06 1011.30 1011.52 1011.69 1011.79 1011.80
1002.84 1002.05 1001.29 1000.65 1000.20 1000.01 1000.09 1000.44 1001.03 1001.78 1002.63 1003.48 1004.28 1004.97 1005.53 1005.98 1006.33 1006.64 1006.95 1007.30 1007.72 1008.20 1008.73 1009.27 1009.79 1010.23 1010.56 1010.78 1010.87 1010.86 1010.79 1010.69 1010.61 1010.57 1010.61 1010.72 1010.90 1011.12 1011.36 1011.58 1011.75 1011.85 1011.86
1003.73 1003.07 1002.43 1001.90 1001.54 1001.40 1001.50 1001.85 1002.41 1003.10 1003.88 1004.65 1005.37 1005.98 1006.47 1006.85 1007.15 1007.42 1007.69 1008.00 1008.38 1008.82 1009.31 1009.81 1010.27 1010.67 1010.97 1011.16 1011.23 1011.21 1011.12 1011.01 1010.92 1010.87 1010.89 1010.98 1011.13 1011.33 1011.54 1011.73 1011.88 1011.96 1011.97
1004.79 1004.29 1003.80 1003.41 1003.16 1003.10 1003.25 1003.60 1004.12 1004.76 1005.44 1006.12 1006.73 1007.23 1007.63 1007.92 1008.15 1008.34 1008.55 1008.80 1009.11 1009.49 1009.91 1010.34 1010.75 1011.11 1011.38 1011.54 1011.61 1011.59 1011.52 1011.43 1011.34 1011.30 1011.31 1011.38 1011.49 1011.65 1011.81 1011.96 1012.06 1012.12 1012.10
1005.90 1005.56 1005.24 1005.00 1004.88 1004.92 1005.13 1005.50 1005.99 1006.56 1007.16 1007.73 1008.22 1008.61 1008.90 1009.09 1009.22 1009.33 1009.45 1009.62 1009.85 1010.14 1010.48 1010.84 1011.19 1011.50 1011.74 1011.90 1011.97 1011.98 1011.95 1011.89 1011.84 1011.81 1011.82 1011.87 1011.95 1012.05 1012.15 1012.23 1012.27 1012.28 1012.23
1006.92 1006.73 1006.58 1006.49 1006.50 1006.65 1006.92 1007.31 1007.79 1008.31 1008.83 1009.30 1009.69 1009.97 1010.15 1010.24 1010.28 1010.30 1010.33 1010.40 1010.54 1010.74 1010.99 1011.28 1011.57 1011.83 1012.05 1012.21 1012.32 1012.37 1012.38 1012.37 1012.36 1012.36 1012.38 1012.41 1012.45 1012.49 1012.52 1012.53 1012.51 1012.45 1012.36
1007.76 1007.71 1007.69 1007.73 1007.87 1008.11 1008.45 1008.87 1009.34 1009.82 1010.28 1010.67 1010.97 1011.16 1011.25 1011.26 1011.23 1011.17 1011.12 1011.12 1011.17 1011.29 1011.46 1011.68 1011.91 1012.13 1012.34 1012.51 1012.65 1012.75 1012.82 1012.87 1012.91 1012.94 1012.97 1012.99 1012.99 1012.98 1012.94 1012.87 1012.77 1012.65 1012.51
1008.39 1008.42 1008.50 1008.65 1008.88 1009.20 1009.59 1010.04 1010.50 1010.96 1011.37 1011.71 1011.95 1012.08 1012.12 1012.08 1011.99 1011.89 1011.79 1011.74 1011.73 1011.79 1011.90 1012.06 1012.25 1012.46 1012.66 1012.85 1013.02 1013.16 1013.29 1013.39 1013.48 1013.55 1013.58 1013.59 1013.57 1013.51 1013.40 1013.27 1013.10 1012.91 1012.72
1008.82 1008.91 1009.06 1009.27 1009.56 1009.93 1010.35 1010.81 1011.28 1011.72 1012.10 1012.41 1012.61 1012.72 1012.74 1012.69 1012.59 1012.47 1012.36 1012.29 1012.26 1012.28 1012.36 1012.49 1012.66 1012.85 1013.05 1013.26 1013.46 1013.65 1013.82 1013.97 1014.10 1014.19 1014.24 1014.24 1014.19 1014.09 1013.94 1013.74 1013.52 1013.28 1013.04
1009.15 1009.25 1009.42 1009.67 1009.99 1010.38 1010.81 1011.27 1011.73 1012.15 1012.52 1012.81 1013.01 1013.13 1013.16 1013.13 1013.06 1012.97 1012.88 1012.82 1012.79 1012.82 1012.89 1013.01 1013.17 1013.35 1013.56 1013.78 1014.01 1014.22 1014.43 1014.61 1014.76 1014.87 1014.93 1014.92 1014.86 1014.73 1014.54 1014.31 1014.04 1013.76 1013.48
1009.44 1009.54 1009.71 1009.96 1010.28 1010.66 1011.09 1011.53 1011.97 1012.39 1012.75 1013.04 1013.25 1013.39 1013.47 1013.48 1013.46 1013.42 1013.39 1013.37 1013.38 1013.42 1013.51 1013.63 1013.79 1013.99 1014.20 1014.43 1014.66 1014.90 1015.12 1015.31 1015.47 1015.58 1015.64 1015.63 1015.55 1015.41 1015.20 1014.95 1014.65 1014.34 1014.03
1009.78 1009.87 1010.03 1010.26 1010.56 1010.92 1011.32 1011.74 1012.16 1012.56 1012.91 1013.21 1013.45 1013.63 1013.75 1013.83 1013.87 1013.90 1013.93 1013.96 1014.02 1014.10 1014.21 1014.35 1014.52 1014.71 1014.92 1015.15 1015.39 1015.62 1015.84 1016.03 1016.18 1016.29 1016.34 1016.32 1016.23 1016.07 1015.86 1015.60 1015.30 1014.97 1014.64
1010.20 1010.28 1010.42 1010.64 1010.91 1011.24 1011.61 1012.00 1012.39 1012.77 1013.12 1013.43 1013.69 1013.91 1014.08 1014.21 1014.32 1014.42 1014.50 1014.59 1014.69 1014.80 1014.93 1015.09 1015.26 1015.46 1015.67 1015.89 1016.11 1016.33 1016.53 1016.70 1016.84 1016.93 1016.95 1016.92 1016.82 1016.66 1016.44 1016.18 1015.88 1015.56 1015.22
1010.70 1010.77 1010.91 1011.11 1011.36 1011.67 1012.00 1012.36 1012.73 1013.09 1013.43 1013.74 1014.02 1014.26 1014.47 1014.65 1014.81 1014.95 1015.08 1015.20 1015.33 1015.46 1015.61 1015.77 1015.94 1016.13 1016.33 1016.54 1016.74 1016.94 1017.11 1017.26 1017.37 1017.42 1017.42 1017.37 1017.25 1017.08 1016.86 1016.60 1016.31 1015.99 1015.65
1011.21 1011.31 1011.45 1011.64 1011.89 1012.17 1012.48 1012.82 1013.16 1013.50 1013.82 1014.13 1014.41 1014.67 1014.90 1015.10 1015.28 1015.44 1015.59 1015.72 1015.86 1016.00 1016.14 1016.30 1016.46 1016.64 1016.83 1017.02 1017.20 1017.37 1017.52 1017.63 1017.70 1017.73 1017.69 1017.60 1017.46 1017.27 1017.03 1016.77 1016.47 1016.15 1015.82
1011.68 1011.81 1011.97 1012.17 1012.41 1012.69 1012.98 1013.30 1013.62 1013.94 1014.25 1014.54 1014.82 1015.07 1015.30 1015.50 1015.68 1015.83 1015.97 1016.10 1016.23 1016.35 1016.48 1016.62 1016.77 1016.93 1017.10 1017.28 1017.44 1017.59 1017.71 1017.79 1017.83 1017.81 1017.74 1017.61 1017.43 1017.20 1016.93 1016.64 1016.32 1015.99 1015.65
1012.06 1012.22 1012.41 1012.64 1012.88 1013.15 1013.44 1013.74 1014.04 1014.34 1014.64 1014.92 1015.17 1015.41 1015.62 1015.80 1015.96 1016.09 1016.21 1016.31 1016.41 1016.51 1016.61 1016.73 1016.87 1017.01 1017.17 1017.33 1017.48 1017.61 1017.71 1017.76 1017.76 1017.70 1017.58 1017.39 1017.15 1016.87 1016.55 1016.21 1015.86 1015.50 1015.13
1012.32 1012.52 1012.75 1012.99 1013.25 1013.52 1013.80 1014.09 1014.38 1014.67 1014.94 1015.20 1015.44 1015.65 1015.84 1016.00 1016.12 1016.23 1016.31 1016.38 1016.44 1016.51 1016.59 1016.69 1016.80 1016.94 1017.08 1017.23 1017.37 1017.48 1017.55 1017.58 1017.54 1017.43 1017.25 1017.00 1016.69 1016.33 1015.95 1015.54 1015.12 1014.71 1014.30
Thickness
5799 5797 5793 5789 5787 5783 5779 5778 5776 5775 5773 5771 5769 5767 5764 5762 5760 5758 5756 5754 5752 5750 5750 5748 5746 5746 5744 5744 5742 5740 5737 5733 5725 5726 5729 5729 5728 5725 5723 5721 5719 5717 5716
5798 5795 5792 5788 5784 5780 5777 5776 5774 5772 5770 5768 5766 5764 5761 5759 5757 5755 5752 5751 5749 5747 5746 5744 5742 5742 5740 5739 5737 5736 5733 5731 5725 5721 5722 5723 5722 5721 5719 5717 5716 5715 5713
5797 5792 5788 5785 5781 5778 5775 5773 5771 5769 5767 5765 5763 5760 5758 5756 5753 5751 5749 5747 5746 5744 5743 5741 5739 5737 5734 5734 5732 5730 5729 5728 5724 5719 5717 5718 5717 5716 5713 5712 5711 5710 5709
5794 5789 5784 5781 5778 5775 5773 5770 5768 5766 5763 5761 5759 5757 5755 5753 5750 5747 5746 5743 5742 5741 5740 5738 5735 5733 5730 5729 5728 5725 5723 5720 5718 5715 5712 5711 5710 5709 5707 5703 5702 5702 5702
5789 5785 5781 5778 5775 5772 5769 5767 5765 5762 5761 5758 5755 5753 5751 5749 5746 5743 5742 5740 5737 5736 5735 5734 5732 5729 5727 5724 5723 5720 5718 5714 5712 5709 5706 5704 5703 5700 5698 5697 5695 5695 5695
5784 5780 5777 5773 5770 5767 5765 5763 5760 5757 5756 5754 5751 5748 5746 5744 5740 5738 5736 5735 5733 5731 5729 5728 5727 5725 5722 5719 5717 5715 5712 5709 5706 5703 5701 5698 5697 5695 5694 5692 5688 5686 5685
5779 5776 5772 5768 5765 5762 5761 5757 5754 5752 5750 5748 5746 5743 5740 5737 5735 5733 5731 5729 5728 5726 5724 5722 5722 5720 5717 5714 5711 5709 5707 5705 5702 5699 5696 5693 5692 5691 5688 5685 5683 5681 5680
5774 5771 5768 5764 5760 5757 5754 5751 5749 5746 5744 5742 5740 5738 5735 5732 5729 5727 5725 5724 5723 5721 5720 5717 5714 5712 5711 5708 5706 5704 5702 5700 5698 5695 5693 5691 5690 5688 5685 5682 5680 5678 5678
5767 5764 5762 5759 5755 5751 5747 5744 5743 5740 5738 5736 5735 5732 5729 5726 5723 5721 5718 5718 5716 5715 5714 5712 5710 5706 5703 5701 5698 5697 5695 5693 5693 5691 5689 5687 5685 5682 5679 5675 5673 5670 5669
5760 5758 5757 5754 5750 5746 5743 5740 5738 5735 5733 5731 5729 5727 5725 5722 5718 5715 5712 5712 5710 5708 5707 5705 5703 5700 5697 5693 5691 5689 5687 5686 5685 5684 5682 5680 5679 5677 5674 5671 5668 5664 5662
5755 5753 5750 5748 5745 5741 5738 5735 5732 5729 5727 5724 5723 5722 5721 5717 5713 5709 5706 5704 5703 5702 5701 5699 5697 5693 5690 5687 5684 5683 5681 5679 5677 5676 5676 5675 5673 5671 5669 5666 5664 5661 5657
5748 5745 5743 5742 5740 5737 5732 5729 5726 5723 5720 5718 5717 5716 5715 5712 5708 5704 5700 5698 5696 5694 5693 5693 5691 5687 5684 5681 5678 5677 5674 5671 5670 5669 5668 5667 5665 5664 5663 5661 5659 5657 5655
5739 5737 5736 5735 5732 5730 5726 5722 5719 5717 5715 5713 5711 5709 5708 5707 5703 5700 5695 5692 5689 5687 5687 5685 5682 5679 5677 5675 5673 5670 5667 5665 5663 5661 5660 5659 5659 5658 5656 5654 5652 5651 5649
5731 5729 5729 5727 5725 5723 5720 5718 5715 5712 5709 5706 5705 5703 5701 5700 5696 5693 5690 5686 5682 5680 5679 5677 5675 5673 5670 5669 5667 5664 5661 5659 5657 5654 5653 5652 5651 5649 5647 5645 5643 5641 5639
5723 5722 5721 5721 5718 5715 5713 5711 5709 5706 5704 5700 5699 5697 5693 5690 5686 5684 5682 5679 5676 5673 5669 5669 5668 5666 5664 5662 5660 5658 5655 5653 5650 5647 5646 5643 5642 5640 5638 5637 5635 5633 5630
5713 5714 5714 5713 5712 5710 5707 5702 5699 5697 5694 5692 5690 5688 5685 5681 5678 5675 5672 5669 5666 5663 5660 5661 5660 5658 5656 5654 5652 5650 5647 5645 5643 5640 5638 5636 5634 5632 5630 5629 5627 5624 5622
5706 5706 5706 5706 5704 5702 5700 5696 5691 5687 5685 5683 5681 5679 5676 5673 5670 5667 5664 5661 5658 5655 5653 5654 5652 5650 5648 5646 5644 5641 5639 5637 5635 5633 5630 5628 5627 5625 5622 5620 5618 5616 5615
5699 5699 5699 5698 5698 5697 5694 5691 5687 5684 5680 5677 5674 5670 5668 5665 5662 5659 5655 5652 5652 5650 5649 5647 5644 5642 5639 5637 5635 5632 5630 5628 5626 5624 5623 5621 5619 5616 5614 5612 5610 5607 5605
5691 5692 5692 5692 5691 5690 5688 5686 5683 5679 5676 5673 5670 5664 5660 5657 5653 5649 5646 5645 5646 5645 5643 5640 5637 5634 5631 5628 5625 5623 5621 5619 5617 5615 5614 5612 5610 5608 5605 5603 5601 5598 5596
5684 5683 5683 5683 5682 5680 5679 5677 5675 5672 5669 5666 5663 5659 5655 5650 5648 5645 5641 5640 5639 5637 5634 5631 5628 5625 5623 5620 5617 5614 5612 5610 5608 5606 5604 5602 5600 5598 5596 5593 5592 5590 5588
5676 5676 5675 5674 5673 5672 5671 5669 5666 5664 5661 5658 5655 5652 5647 5645 5643 5641 5639 5636 5633 5630 5626 5623 5620 5617 5613 5610 5608 5605 5603 5601 5598 5596 5594 5592 5591 5588 5587 5585 5584 5582 5580
5668 5668 5667 5666 5665 5664 5662 5660 5658 5656 5653 5649 5646 5643 5638 5636 5635 5633 5630 5628 5625 5622 5619 5615 5612 5609 5606 5603 5600 5597 5594 5592 5589 5587 5584 5582 5580 5579 5578 5576 5575 5573 5571
5659 5659 5659 5658 5657 5654 5653 5652 5649 5647 5644 5641 5638 5634 5629 5627 5626 5624 5621 5619 5616 5613 5611 5608 5605 5602 5599 5596 5593 5589 5585 5582 5579 5576 5574 5572 5570 5569 5568 5567 5565 5563 5562
5651 5650 5649 5648 5647 5646 5644 5642 5640 5638 5635 5632 5629 5626 5622 5618 5616 5614 5611 5609 5606 5604 5602 5600 5597 5594 5591 5587 5584 5580 5575 5571 5569 5567 5564 5562 5561 5560 5559 5558 5556 5555 5554
5641 5640 5639 5639 5637 5635 5633 5631 5628 5626 5624 5622 5619 5616 5613 5610 5607 5603 5601 5599 5597 5594 5592 5589 5587 5584 5580 5577 5573 5569 5564 5562 5559 5557 5555 5553 5552 5551 5550 5549 5548 5547 5546
5633 5632 5631 5630 5628 5626 5623 5620 5617 5615 5614 5612 5609 5606 5603 5600 5597 5594 5591 5589 5587 5584 5581 5579 5576 5574 5570 5567 5563 5558 5555 5552 5550 5548 5546 5545 5544 5543 5541 5540 5539 5538 5538